Roanoke, VA

5:36 AM EDT on October 15, 2019 (GMT -0400)
Roanoke Regional-Woodrum

Weather History for KROA - August, 2019

Change the Weather History Date:

Thursday, August 8, 2019

  Actual Average Record
Temperature  
Mean Temperature 79 °F 76 °F  
Max Temperature 90 °F 87 °F 100 °F (2007)
Min Temperature 67 °F 66 °F 53 °F (2004)
Degree Days  
Heating Degree Days 0 0  
Month to date heating degree days 0 0  
Since 1 June heating degree days 0 11  
Since 1 July heating degree days 0 0  
Cooling Degree Days 14 11  
Month to date cooling degree days 102 90  
Year to date cooling degree days 1085 813  
Since 1 June cooling degree days 806 697  
Growing Degree Days 28 (Base 50)    
Moisture  
Dew Point 61 °F    
Average Humidity 62    
Maximum Humidity 87    
Minimum Humidity 36    
Precipitation  
Precipitation 0.00 in 0.12 in 2.45 in (1998)
Month to date precipitation 0.26 0.95  
Year to date precipitation 27.83 25.52  
Snow  
Snow 0.00 in - - ()
Month to date snowfall 0.0  
Since 1 June snowfall T  
Since 1 July snowfall T  
Snow Depth 0.00 in    
Sea Level Pressure  
Sea Level Pressure 29.87 in    
Wind  
Wind Speed 8 mph (West)    
Max Wind Speed 15 mph    
Max Gust Speed 21 mph    
Visibility 10 miles    
Events Thunderstorm    
T = Trace of Precipitation, MM = Missing Value Source: NWS Daily Summary

Daily Weather History Graph

Daily Weather History Graph

Search for Another Location

Airport or City:

Astronomy

Aug. 08, 2019 Rise Set
Actual Time 6:30 AM EDT 8:20 PM EDT
Civil Twilight 6:01 AM EDT 8:48 PM EDT
Nautical Twilight 5:27 AM EDT 9:22 PM EDT
Astronomical Twilight 4:50 AM EDT 9:59 PM EDT
Moon 2:54 PM EDT (8/8) 12:50 AM EDT (8/8)
Length of Visible Light 14h 47m
Length of Day
13h 50m
First Quarter, 60% of the Moon is Illuminated
Aug 8
First Quarter
Aug 15
Full
Aug 23
Last Quarter
Aug 30
New
Sep 5
First Quarter

Hourly Weather History & Observations

Time (EDT) Temp. Heat Index Dew Point Humidity Pressure Visibility Wind Dir Wind Speed Gust Speed Precip Events Conditions
12:54 AM 75.9 °F - 66.0 °F 71% 29.86 in 10.0 mi WSW 4.6 mph - N/A   Scattered Clouds
1:54 AM 72.0 °F - 64.9 °F 78% 29.86 in 10.0 mi WNW 5.8 mph - N/A   Clear
2:54 AM 70.0 °F - 64.0 °F 81% 29.85 in 10.0 mi West 5.8 mph - N/A   Clear
3:54 AM 69.1 °F - 64.0 °F 84% 29.85 in 10.0 mi WNW 5.8 mph - N/A   Clear
4:54 AM 69.1 °F - 63.0 °F 81% 29.86 in 10.0 mi NW 4.6 mph - N/A   Clear
5:54 AM 68.0 °F - 63.0 °F 84% 29.85 in 10.0 mi NNW 4.6 mph - N/A   Clear
6:54 AM 68.0 °F - 64.0 °F 87% 29.87 in 10.0 mi West 5.8 mph - N/A   Clear
7:54 AM 71.1 °F - 64.0 °F 78% 29.88 in 10.0 mi West 6.9 mph - N/A   Clear
8:54 AM 73.9 °F - 64.9 °F 73% 29.88 in 10.0 mi WSW 6.9 mph - N/A   Clear
9:54 AM 79.0 °F - 64.9 °F 62% 29.88 in 10.0 mi SW 6.9 mph - N/A   Clear
11:54 AM 82.0 °F 83.8 °F 64.9 °F 56% 29.88 in 10.0 mi West 10.4 mph 17.3 mph N/A   Mostly Cloudy
12:20 PM 84.9 °F 83.9 °F 57.0 °F 38% 29.93 in 10.0 mi WNW 12.7 mph 19.6 mph N/A   Partly Cloudy
12:54 PM 87.1 °F 86.1 °F 57.9 °F 37% 29.88 in 10.0 mi West 9.2 mph 19.6 mph N/A   Scattered Clouds
1:54 PM 87.1 °F 86.1 °F 57.9 °F 37% 29.87 in 10.0 mi West 13.8 mph - N/A   Scattered Clouds
2:54 PM 88.0 °F 87.1 °F 59.0 °F 37% 29.87 in 10.0 mi West 10.4 mph - N/A   Scattered Clouds
3:54 PM 88.0 °F 86.7 °F 57.0 °F 35% 29.86 in 10.0 mi WNW 15.0 mph 20.7 mph N/A   Scattered Clouds
4:54 PM 89.1 °F 88.8 °F 60.1 °F 38% 29.84 in 10.0 mi West 13.8 mph 18.4 mph N/A Thunderstorm Clear
5:25 PM 89.1 °F 88.2 °F 59.0 °F 36% 29.88 in 10.0 mi West 12.7 mph 18.4 mph N/A   Partly Cloudy
5:54 PM 88.0 °F 86.9 °F 57.9 °F 36% 29.84 in 10.0 mi West 11.5 mph - N/A   Partly Cloudy
6:54 PM 87.1 °F 86.5 °F 59.0 °F 39% 29.85 in 10.0 mi WNW 10.4 mph - N/A   Partly Cloudy
7:54 PM 84.0 °F 84.0 °F 60.1 °F 44% 29.85 in 10.0 mi West 6.9 mph - N/A   Clear
8:54 PM 79.0 °F - 60.1 °F 52% 29.87 in 10.0 mi West 5.8 mph - N/A   Clear
9:54 PM 79.0 °F - 60.1 °F 52% 29.88 in 10.0 mi SW 8.1 mph - N/A   Clear
10:54 PM 75.9 °F - 61.0 °F 60% 29.89 in 10.0 mi West 5.8 mph - N/A   Clear
11:54 PM 75.0 °F - 61.0 °F 62% 29.89 in 10.0 mi West 6.9 mph - N/A   Partly Cloudy